OK2WF-5 Weather Reports


time (UTC)temp
C
wind
direction
speed
KPH
gust
KPH
rain 1hr
cm
rain 24hr
cm
rain mn
cm
humidity
%
barometer
mb
20260507021112 -17 90 1.6 1.6 0.00 0.00 0.00 1005.9
20260507020314 -17 315 0.0 4.8 0.00 0.00 0.00 1006.0
20260507015510 -17 315 1.6 4.8 0.00 0.00 0.00 1005.7
20260507014705 -17 180 1.6 1.6 0.00 0.00 0.00 1005.4
20260507013904 -17 135 1.6 3.2 0.00 0.00 0.00 1005.1
20260507013059 -17 45 0.0 3.2 0.00 0.00 0.00 1005.1
20260507012255 -17 180 3.2 3.2 0.00 0.00 0.00 1005.1
20260507011450 -17 315 1.6 4.8 0.00 0.00 0.00 1005.0
20260507010648 -17 315 0.0 3.2 0.00 0.00 0.00 1005.0
20260507005846 -17 90 0.0 4.8 0.00 0.00 0.00 1005.0
20260507005041 -17 90 0.0 3.2 0.00 0.00 0.00 1004.9
20260507004239 -17 225 1.6 3.2 0.00 0.00 0.00 1004.9
20260507003434 -17 45 1.6 6.4 0.00 0.00 0.00 1004.5
20260507002631 -17 90 1.6 9.7 0.00 0.00 0.00 1004.5
20260507001826 -17 45 0.0 9.7 0.00 0.00 0.00 1004.4
20260507001020 -17 45 4.8 6.4 0.00 0.00 0.00 1004.5
20260507000213 -17 315 3.2 8.0 0.00 0.00 0.00 1004.4
20260506235411 -17 180 4.8 12.9 0.00 0.00 0.00 1004.4
20260506234606 -17 90 1.6 6.4 0.00 0.00 0.00 1004.2
20260506233800 -17 45 3.2 11.3 0.00 0.00 0.00 1004.1
20260506232958 -17 45 3.2 12.9 0.00 0.00 0.00 1003.9
20260506232155 -17 45 1.6 8.0 0.00 0.00 0.00 1004.1
20260506231352 -17 45 0.0 1.6 0.00 0.00 0.00 1003.9
20260506230551 -17 45 0.0 0.0 0.00 0.00 0.00 1003.6
20260506225748 -17 90 0.0 0.0 0.00 0.00 0.00 1003.3
20260506224945 -17 270 0.0 4.8 0.00 0.00 0.00 1003.1
20260506224137 -17 90 0.0 0.0 0.00 0.00 0.00 1002.8
20260506223334 -17 270 0.0 4.8 0.00 0.00 0.00 1002.8
20260506222531 -17 315 1.6 4.8 0.00 0.00 0.00 1002.8
20260506221725 -17 315 3.2 9.7 0.00 0.00 0.00 1002.6
20260506220913 -17 315 3.2 6.4 0.00 0.00 0.00 1002.6
20260506220101 -17 315 1.6 12.9 0.00 0.00 0.00 1002.4
20260506215255 -17 315 3.2 8.0 0.00 0.00 0.00 1002.5
20260506214453 -17 270 3.2 9.7 0.00 0.00 0.00 1002.5
20260506213648 -17 270 0.0 4.8 0.00 0.00 0.00 1002.1
20260506212846 -17 270 4.8 8.0 0.00 0.00 0.00 1002.0
20260506212041 -17 315 1.6 8.0 0.00 0.00 0.00 1002.0
20260506211238 -17 270 3.2 6.4 0.00 0.00 0.00 1002.0
20260506210435 -17 315 1.6 8.0 0.00 0.00 0.00 1001.9
20260506205631 -17 315 1.6 12.9 0.00 0.00 0.00 1001.8
20260506204826 -17 270 1.6 8.0 0.00 0.00 0.00 1001.8
20260506204025 -17 225 1.6 6.4 0.00 0.00 0.00 1001.8
20260506203219 -17 270 1.6 11.3 0.00 0.00 0.00 1001.7
20260506202413 -17 315 3.2 11.3 0.00 0.00 0.00 1001.6
20260506201609 -17 315 1.6 9.7 0.00 0.00 0.00 1001.6
20260506200803 -17 270 1.6 8.0 0.00 0.00 0.00 1001.6
20260506200001 -17 270 4.8 11.3 0.00 0.00 0.00 1001.5
20260506195155 -17 315 3.2 14.5 0.00 0.00 0.00 1001.6
20260506194351 -17 45 1.6 9.7 0.00 0.00 0.00 1001.5
20260506193545 -17 315 3.2 16.1 0.00 0.00 0.00 1001.4
20260506192741 -17 270 6.4 11.3 0.00 0.00 0.00 1001.4
20260506191936 -17 315 6.4 8.0 0.00 0.00 0.00 1001.3
20260506191133 -17 315 3.2 6.4 0.00 0.00 0.00 1001.2
20260506190333 -17 315 1.6 11.3 0.00 0.00 0.00 1001.2
20260506185530 -17 270 4.8 8.0 0.00 0.00 0.00 1001.2
20260506184722 -17 270 6.4 11.3 0.00 0.00 0.00 1000.9
20260506183919 -17 293 3.2 12.9 0.00 0.00 0.00 1000.8
20260506183111 -17 315 4.8 11.3 0.00 0.00 0.00 1000.9
20260506182306 -17 225 0.0 9.7 0.00 0.00 0.00 1000.9
20260506181501 -17 225 4.8 12.9 0.00 0.00 0.00 1000.8
20260506180655 -17 315 4.8 11.3 0.00 0.00 0.00 1000.7
20260506175852 -17 315 8.0 11.3 0.00 0.00 0.00 1000.5
20260506175052 -17 270 3.2 17.7 0.00 0.00 0.00 1000.4
20260506174248 -17 315 4.8 16.1 0.00 0.00 0.00 1000.3
20260506173442 -17 248 3.2 14.5 0.00 0.00 0.00 1000.2
20260506172635 -17 0 3.2 17.7 0.00 0.00 0.00 1000.2
20260506171830 -17 180 6.4 16.1 0.00 0.00 0.00 1000.1
20260506171025 -17 90 1.6 17.7 0.00 0.00 0.00 1000.1
20260506170212 -17 315 4.8 17.7 0.00 0.00 0.00 1000.2
20260506165359 -17 315 6.4 20.9 0.00 0.00 0.00 1000.1
20260506164555 -17 315 6.4 20.9 0.00 0.00 0.00 1000.2
20260506163747 -17 0 3.2 16.1 0.00 0.00 0.00 1000.3
20260506162938 -17 315 9.7 19.3 0.00 0.00 0.00 1000.2
20260506162138 -17 315 17.7 22.5 0.00 0.00 0.00 1000.2
20260506161334 -17 315 3.2 17.7 0.00 0.00 0.00 1000.2
20260506160525 -17 315 6.4 14.5 0.00 0.00 0.00 1000.3
20260506155721 -17 0 6.4 14.5 0.00 0.00 0.00 1000.2
20260506154916 -17 293 4.8 16.1 0.00 0.00 0.00 1000.4
20260506154109 -17 225 3.2 25.7 0.00 0.00 0.00 1000.6
20260506153304 -17 293 17.7 22.5 0.00 0.00 0.00 1000.7
20260506152501 -17 315 6.4 14.5 0.00 0.00 0.00 1000.6
20260506151655 -17 135 3.2 14.5 0.00 0.00 0.00 1000.9
20260506150849 -17 225 6.4 9.7 0.00 0.00 0.00 1001.5
20260506150041 -17 270 6.4 11.3 0.00 0.00 0.00 1001.7
20260506145237 -17 315 1.6 8.0 0.00 0.00 0.00 1001.8
20260506144434 -17 270 3.2 12.9 0.00 0.00 0.00 1001.8
20260506143630 -17 315 1.6 9.7 0.00 0.00 0.00 1001.8
20260506142828 -17 270 4.8 9.7 0.00 0.00 0.00 1001.9
20260506142027 -17 90 1.6 14.5 0.00 0.00 0.00 1001.9
20260506141224 -17 225 3.2 16.1 0.00 0.00 0.00 1001.8
20260506140411 -17 315 6.4 14.5 0.00 0.00 0.00 1002.0
20260506135558 -17 315 4.8 12.9 0.00 0.00 0.00 1002.0
20260506134750 -17 315 8.0 19.3 0.00 0.00 0.00 1002.0
20260506133946 -17 293 11.3 16.1 0.00 0.00 0.00 1002.2
20260506133142 -17 293 8.0 20.9 0.00 0.00 0.00 1002.1
20260506132337 -17 270 6.4 22.5 0.00 0.00 0.00 1002.2
20260506131533 -17 270 17.7 19.3 0.00 0.00 0.00 1002.5
20260506130720 -17 135 4.8 17.7 0.00 0.00 0.00 1002.6
20260506125907 -17 270 8.0 17.7 0.00 0.00 0.00 1002.8
20260506125054 -17 0 6.4 17.7 0.00 0.00 0.00 1002.7
20260506124250 -17 270 6.4 17.7 0.00 0.00 0.00 1002.7
20260506123446 -17 180 8.0 17.7 0.00 0.00 0.00 1002.6
20260506122641 -17 270 8.0 19.3 0.00 0.00 0.00 1003.0
20260506121832 -17 180 4.8 14.5 0.00 0.00 0.00 1003.1
20260506121025 -17 338 3.2 9.7 0.00 0.00 0.00 1003.0
20260506120222 -17 315 3.2 12.9 0.00 0.00 0.00 1003.1
20260506115419 -17 315 11.3 19.3 0.00 0.00 0.00 1003.1
20260506114543 -17 315 8.0 11.3 0.00 0.00 0.00 1003.0
20260506113740 -17 293 6.4 12.9 0.00 0.00 0.00 1003.1
20260506112933 -17 270 1.6 9.7 0.00 0.00 0.00 1003.3
20260506112129 -17 315 3.2 11.3 0.00 0.00 0.00 1003.3
20260506111328 -17 248 6.4 16.1 0.00 0.00 0.00 1003.4
20260506110520 -17 135 9.7 17.7 0.00 0.00 0.00 1003.7
20260506105715 -17 225 3.2 12.9 0.00 0.00 0.00 1003.7
20260506104911 -17 315 4.8 11.3 0.00 0.00 0.00 1003.8
20260506104106 -17 270 8.0 11.3 0.00 0.00 0.00 1003.8
20260506103302 -17 270 9.7 14.5 0.00 0.00 0.00 1003.9
20260506102500 -17 270 6.4 16.1 0.00 0.00 0.00 1003.8
20260506101657 -17 225 1.6 14.5 0.00 0.00 0.00 1003.8
20260506100854 -17 270 4.8 12.9 0.00 0.00 0.00 1004.0
20260506100053 -17 315 6.4 14.5 0.00 0.00 0.00 1003.8
20260506095247 -17 0 6.4 12.9 0.00 0.00 0.00 1003.9
20260506094443 -17 135 4.8 17.7 0.00 0.00 0.00 1004.1
20260506093639 -17 315 6.4 11.3 0.00 0.00 0.00 1004.1
20260506092835 -17 225 3.2 12.9 0.00 0.00 0.00 1004.2
20260506092033 -17 225 8.0 14.5 0.00 0.00 0.00 1004.3
20260506091230 -17 315 9.7 16.1 0.00 0.00 0.00 1004.2
20260506090427 -17 315 1.6 8.0 0.00 0.00 0.00 1004.1
20260506085627 -17 315 3.2 14.5 0.00 0.00 0.00 1004.4
20260506084822 -17 270 4.8 17.7 0.00 0.00 0.00 1004.3
20260506084016 -17 315 4.8 12.9 0.00 0.00 0.00 1004.5
20260506083212 -17 270 3.2 12.9 0.00 0.00 0.00 1004.7
20260506082406 -17 315 6.4 14.5 0.00 0.00 0.00 1004.7
20260506081601 -17 270 3.2 17.7 0.00 0.00 0.00 1004.4
20260506080759 -17 270 4.8 16.1 0.00 0.00 0.00 1004.0
20260506072743 -17 315 6.4 12.9 0.00 0.00 0.00 1004.2
20260506071938 -17 293 8.0 12.9 0.00 0.00 0.00 1004.0
20260506071131 -17 270 6.4 12.9 0.00 0.00 0.00 1004.5
20260506070327 -17 315 6.4 20.9 0.00 0.00 0.00 1004.7
20260506062312 -17 225 4.8 9.7 0.00 0.00 0.00 1005.2
20260506061507 -17 90 1.6 9.7 0.00 0.00 0.00 1005.4
20260506060703 -17 315 1.6 11.3 0.00 0.00 0.00 1005.4
20260506051020 -17 270 1.6 6.4 0.00 0.00 0.00 1005.2
20260506050213 -17 225 0.0 1.6 0.00 0.00 0.00 1005.4
20260506044604 -17 270 1.6 1.6 0.00 0.00 0.00 1005.5
20260506043802 -17 270 1.6 1.6 0.00 0.00 0.00 1005.7
20260506042958 -17 90 0.0 0.0 0.00 0.00 0.00 1005.8
20260506042155 -17 90 0.0 1.6 0.00 0.00 0.00 1005.8
20260506041349 -17 90 0.0 1.6 0.00 0.00 0.00 1005.7
20260506040545 -17 90 0.0 1.6 0.00 0.00 0.00 1005.6
20260506035740 -17 90 0.0 0.0 0.00 0.00 0.00 1005.5
20260506034936 -17 90 0.0 1.6 0.00 0.00 0.00 1005.4
20260506034131 -17 90 0.0 3.2 0.00 0.00 0.00 1005.5
20260506033323 -17 90 0.0 3.2 0.00 0.00 0.00 1005.5
20260506032519 -17 90 0.0 3.2 0.00 0.00 0.00 1005.5
20260506031716 -17 90 1.6 1.6 0.00 0.00 0.00 1005.4
20260506030915 -17 90 1.6 1.6 0.00 0.00 0.00 1005.3
20260506030109 -17 90 0.0 1.6 0.00 0.00 0.00 1005.3
20260506025305 -17 45 1.6 1.6 0.00 0.00 0.00 1005.2
20260506024500 -17 90 0.0 1.6 0.00 0.00 0.00 1005.1
20260506023657 -17 90 0.0 1.6 0.00 0.00 0.00 1004.9
20260506022853 -17 90 1.6 3.2 0.00 0.00 0.00 1004.8
20260506022052 -17 90 0.0 1.6 0.00 0.00 0.00 1004.8